Time,TemperatureF,DewpointF,PressureIn,WindDirection,WindDirectionDegrees,WindSpeedMPH,WindSpeedGustMPH,Humidity,HourlyPrecipIn,Conditions,Clouds,dailyrainin,SolarRadiationWatts/m^2,SoftwareType,DateUTC
2013-02-27 00:00:00,38.9,35.1,29.51,South,169,9.0,19.5,86,0.00,,,0.58,0.00,VWS V14.01,2013-02-27 05:00:00,
2013-02-27 00:05:00,38.9,35.1,29.51,SE,133,7.5,18.0,86,0.00,,,0.00,0.00,VWS V14.01,2013-02-27 05:05:00,
2013-02-27 00:10:00,38.9,35.1,29.51,East,101,13.5,21.0,86,0.00,,,0.00,0.00,VWS V14.01,2013-02-27 05:10:00,
2013-02-27 00:15:00,38.9,35.1,29.51,South,181,1.5,21.0,86,0.00,,,0.00,0.00,VWS V14.01,2013-02-27 05:15:00,
2013-02-27 00:20:00,38.9,35.1,29.51,NE,36,4.5,16.5,86,0.00,,,0.00,0.00,VWS V14.01,2013-02-27 05:20:00,
2013-02-27 00:25:00,39.0,35.2,29.51,NE,41,3.0,19.5,86,0.00,,,0.00,0.00,VWS V14.01,2013-02-27 05:25:00,
2013-02-27 00:30:00,38.9,35.1,29.51,SE,139,9.0,19.5,86,0.00,,,0.00,0.00,VWS V14.01,2013-02-27 05:30:00,
2013-02-27 00:35:00,38.9,35.1,29.51,SE,141,13.5,21.0,86,0.00,,,0.00,0.00,VWS V14.01,2013-02-27 05:35:00,
2013-02-27 00:40:00,39.0,35.2,29.51,SE,128,4.5,21.0,86,0.00,,,0.00,0.00,VWS V14.01,2013-02-27 05:40:00,
2013-02-27 00:45:00,38.9,35.1,29.51,SSE,154,6.0,21.0,86,0.00,,,0.00,0.00,VWS V14.01,2013-02-27 05:45:00,
2013-02-27 00:50:00,38.9,35.4,29.51,ESE,102,0.0,13.5,87,0.00,,,0.00,0.00,VWS V14.01,2013-02-27 05:50:00,
2013-02-27 00:55:00,38.9,35.4,29.51,WSW,239,6.0,13.5,87,0.00,,,0.00,0.00,VWS V14.01,2013-02-27 05:55:00,
2013-02-27 01:00:00,38.9,35.4,29.51,SE,140,3.0,13.5,87,0.00,,,0.00,0.00,VWS V14.01,2013-02-27 06:00:00,
2013-02-27 01:05:00,38.8,35.6,29.51,SE,127,7.5,19.5,88,0.01,,,0.01,0.00,VWS V14.01,2013-02-27 06:05:00,
2013-02-27 01:10:00,38.7,35.5,29.51,SE,146,6.0,21.0,88,0.01,,,0.01,0.00,VWS V14.01,2013-02-27 06:10:00,
2013-02-27 01:15:00,38.6,35.6,29.50,SSE,154,4.5,21.0,89,0.01,,,0.01,0.00,VWS V14.01,2013-02-27 06:15:00,
2013-02-27 01:20:00,38.5,35.5,29.51,ESE,123,7.5,16.5,89,0.01,,,0.01,0.00,VWS V14.01,2013-02-27 06:20:00,
2013-02-27 01:25:00,38.5,35.5,29.50,SE,133,3.0,25.5,89,0.01,,,0.01,0.00,VWS V14.01,2013-02-27 06:25:00,
2013-02-27 01:30:00,38.5,35.5,29.50,ENE,63,3.0,25.5,89,0.01,,,0.01,0.00,VWS V14.01,2013-02-27 06:30:00,
2013-02-27 01:35:00,38.5,35.5,29.51,South,172,4.5,13.5,89,0.01,,,0.01,0.00,VWS V14.01,2013-02-27 06:35:00,
2013-02-27 01:40:00,38.5,35.5,29.50,SSE,152,3.0,22.5,89,0.01,,,0.01,0.00,VWS V14.01,2013-02-27 06:40:00,
2013-02-27 01:45:00,38.5,35.5,29.51,ENE,59,3.0,22.5,89,0.02,,,0.02,0.00,VWS V14.01,2013-02-27 06:45:00,
2013-02-27 01:50:00,38.5,35.8,29.51,SE,139,4.5,12.0,90,0.02,,,0.02,0.00,VWS V14.01,2013-02-27 06:50:00,
2013-02-27 01:55:00,38.5,35.5,29.51,ESE,114,3.0,22.5,89,0.02,,,0.02,0.00,VWS V14.01,2013-02-27 06:55:00,
2013-02-27 02:00:00,38.5,35.8,29.51,ESE,113,4.5,22.5,90,0.02,,,0.02,0.00,VWS V14.01,2013-02-27 07:00:00,
2013-02-27 02:05:00,38.6,35.9,29.51,ESE,123,7.5,13.5,90,0.02,,,0.02,0.00,VWS V14.01,2013-02-27 07:05:00,
2013-02-27 02:10:00,38.5,35.8,29.51,ESE,119,3.0,13.5,90,0.02,,,0.02,0.00,VWS V14.01,2013-02-27 07:10:00,
2013-02-27 02:15:00,38.5,35.8,29.51,ESE,120,9.0,16.5,90,0.02,,,0.02,0.00,VWS V14.01,2013-02-27 07:15:00,
2013-02-27 02:20:00,38.4,35.7,29.51,ESE,105,4.5,15.0,90,0.02,,,0.03,0.00,VWS V14.01,2013-02-27 07:20:00,
2013-02-27 02:25:00,38.5,35.8,29.51,SE,133,1.5,24.0,90,0.02,,,0.03,0.00,VWS V14.01,2013-02-27 07:25:00,
2013-02-27 02:30:00,38.5,36.1,29.51,ESE,117,3.0,24.0,91,0.02,,,0.03,0.00,VWS V14.01,2013-02-27 07:30:00,
2013-02-27 02:35:00,38.4,36.0,29.51,SE,139,10.5,12.0,91,0.02,,,0.03,0.00,VWS V14.01,2013-02-27 07:35:00,
2013-02-27 02:40:00,38.4,36.0,29.51,ESE,115,6.0,13.5,91,0.02,,,0.03,0.00,VWS V14.01,2013-02-27 07:40:00,
2013-02-27 02:45:00,38.3,35.9,29.51,ENE,65,9.0,15.0,91,0.02,,,0.03,0.00,VWS V14.01,2013-02-27 07:45:00,
2013-02-27 02:50:00,38.3,35.9,29.50,SE,127,1.5,12.0,91,0.01,,,0.03,0.00,VWS V14.01,2013-02-27 07:50:00,
2013-02-27 02:55:00,38.3,35.9,29.50,NE,39,3.0,12.0,91,0.02,,,0.04,0.00,VWS V14.01,2013-02-27 07:55:00,
2013-02-27 03:00:00,38.3,36.2,29.50,SE,141,12.0,12.0,92,0.02,,,0.04,0.00,VWS V14.01,2013-02-27 08:00:00,
2013-02-27 03:05:00,38.4,36.3,29.50,SE,125,4.5,10.5,92,0.02,,,0.04,0.00,VWS V14.01,2013-02-27 08:05:00,
2013-02-27 03:10:00,38.4,36.3,29.50,SE,133,7.5,15.0,92,0.02,,,0.04,0.00,VWS V14.01,2013-02-27 08:10:00,
2013-02-27 03:15:00,38.4,36.3,29.50,SSE,155,3.0,15.0,92,0.02,,,0.04,0.00,VWS V14.01,2013-02-27 08:15:00,
2013-02-27 03:20:00,38.5,36.4,29.50,South,191,0.0,13.5,92,0.02,,,0.04,0.00,VWS V14.01,2013-02-27 08:20:00,
2013-02-27 03:25:00,38.5,36.4,29.50,East,79,1.5,13.5,92,0.02,,,0.04,0.00,VWS V14.01,2013-02-27 08:25:00,
2013-02-27 03:30:00,38.5,36.4,29.50,SE,134,1.5,15.0,92,0.02,,,0.04,0.00,VWS V14.01,2013-02-27 08:30:00,
2013-02-27 03:34:00,38.4,36.3,29.50,ESE,115,6.0,9.0,92,0.01,,,0.04,0.00,VWS V14.01,2013-02-27 08:34:00,
2013-02-27 03:39:00,38.4,36.3,29.50,SE,140,1.5,9.0,92,0.01,,,0.04,0.00,VWS V14.01,2013-02-27 08:39:00,
2013-02-27 03:45:00,38.4,36.6,29.50,South,169,3.0,15.0,93,0.02,,,0.05,0.00,VWS V14.01,2013-02-27 08:45:00,
2013-02-27 03:49:00,38.4,36.6,29.50,SE,143,6.0,9.0,93,0.02,,,0.05,0.00,VWS V14.01,2013-02-27 08:49:00,
2013-02-27 03:54:00,38.4,36.6,29.50,SE,138,3.0,10.5,93,0.02,,,0.05,0.00,VWS V14.01,2013-02-27 08:54:00,
2013-02-27 03:59:00,38.4,36.6,29.50,South,180,6.0,12.0,93,0.02,,,0.05,0.00,VWS V14.01,2013-02-27 08:59:00,
2013-02-27 04:00:00,38.4,36.6,29.50,SSE,156,7.5,12.0,93,0.02,,,0.05,0.00,VWS V14.01,2013-02-27 09:00:00,
2013-02-27 04:04:00,38.4,36.6,29.49,South,172,4.5,16.5,93,0.01,,,0.05,0.00,VWS V14.01,2013-02-27 09:04:00,
2013-02-27 04:09:00,38.4,36.6,29.50,SE,141,3.0,16.5,93,0.01,,,0.05,0.00,VWS V14.01,2013-02-27 09:09:00,
2013-02-27 04:14:00,38.3,36.5,29.50,SE,134,4.5,16.5,93,0.01,,,0.05,0.00,VWS V14.01,2013-02-27 09:14:00,
2013-02-27 04:15:00,38.3,36.5,29.50,SE,128,1.5,16.5,93,0.01,,,0.05,0.00,VWS V14.01,2013-02-27 09:15:00,
2013-02-27 04:19:00,38.3,36.7,29.50,ESE,114,6.0,10.5,94,0.01,,,0.05,0.00,VWS V14.01,2013-02-27 09:19:00,
2013-02-27 04:24:00,38.3,36.7,29.50,SSE,151,4.5,10.5,94,0.01,,,0.05,0.00,VWS V14.01,2013-02-27 09:24:00,
2013-02-27 04:29:00,38.3,36.7,29.50,ESE,120,3.0,10.5,94,0.01,,,0.05,0.00,VWS V14.01,2013-02-27 09:29:00,
2013-02-27 04:30:00,38.3,36.7,29.50,SE,136,1.5,10.5,94,0.01,,,0.05,0.00,VWS V14.01,2013-02-27 09:30:00,
2013-02-27 04:34:00,38.3,36.7,29.50,SE,138,3.0,7.5,94,0.01,,,0.05,0.00,VWS V14.01,2013-02-27 09:34:00,
2013-02-27 04:39:00,38.3,36.7,29.51,SE,126,1.5,7.5,94,0.01,,,0.05,0.00,VWS V14.01,2013-02-27 09:39:00,
2013-02-27 04:44:00,38.4,36.8,29.51,ENE,78,10.5,13.5,94,0.02,,,0.06,0.00,VWS V14.01,2013-02-27 09:44:00,
2013-02-27 04:45:00,38.4,36.8,29.51,SE,139,3.0,13.5,94,0.02,,,0.06,0.00,VWS V14.01,2013-02-27 09:45:00,
2013-02-27 04:49:00,38.4,36.8,29.51,SSE,158,1.5,4.5,94,0.01,,,0.06,0.00,VWS V14.01,2013-02-27 09:49:00,
2013-02-27 04:54:00,38.4,36.8,29.51,South,179,0.0,6.0,94,0.01,,,0.06,0.00,VWS V14.01,2013-02-27 09:54:00,
2013-02-27 04:59:00,38.4,36.8,29.52,SE,136,9.0,9.0,94,0.01,,,0.06,0.00,VWS V14.01,2013-02-27 09:59:00,
2013-02-27 05:00:00,38.4,36.8,29.52,SSE,150,4.5,10.5,94,0.01,,,0.06,0.00,VWS V14.01,2013-02-27 10:00:00,
2013-02-27 05:04:00,38.5,36.9,29.52,SW,216,0.0,7.5,94,0.01,,,0.06,0.00,VWS V14.01,2013-02-27 10:04:00,
2013-02-27 05:09:00,38.5,36.9,29.51,SE,145,1.5,9.0,94,0.02,,,0.07,0.00,VWS V14.01,2013-02-27 10:09:00,
2013-02-27 05:14:00,38.4,36.8,29.52,SSE,150,1.5,9.0,94,0.02,,,0.07,0.00,VWS V14.01,2013-02-27 10:14:00,
2013-02-27 05:15:00,38.4,36.8,29.52,SE,134,1.5,9.0,94,0.02,,,0.07,0.00,VWS V14.01,2013-02-27 10:15:00,
2013-02-27 05:19:00,38.4,36.8,29.52,East,95,0.0,3.0,94,0.02,,,0.07,0.00,VWS V14.01,2013-02-27 10:19:00,
2013-02-27 05:24:00,38.4,36.8,29.52,ENE,66,1.5,7.5,94,0.03,,,0.08,0.00,VWS V14.01,2013-02-27 10:24:00,
2013-02-27 05:29:00,38.4,36.8,29.52,SE,136,1.5,7.5,94,0.03,,,0.08,0.00,VWS V14.01,2013-02-27 10:29:00,
2013-02-27 05:30:00,38.4,36.8,29.52,SW,221,1.5,7.5,94,0.03,,,0.08,0.00,VWS V14.01,2013-02-27 10:30:00,
2013-02-27 05:34:00,38.4,36.8,29.52,South,173,0.0,4.5,94,0.03,,,0.08,0.00,VWS V14.01,2013-02-27 10:34:00,
2013-02-27 05:39:00,38.4,37.1,29.52,SE,127,4.5,4.5,95,0.04,,,0.09,0.00,VWS V14.01,2013-02-27 10:39:00,
2013-02-27 05:44:00,38.5,37.2,29.52,SE,142,0.0,4.5,95,0.04,,,0.09,0.00,VWS V14.01,2013-02-27 10:44:00,
2013-02-27 05:45:00,38.5,37.2,29.52,SSE,149,0.0,4.5,95,0.04,,,0.09,0.00,VWS V14.01,2013-02-27 10:45:00,
2013-02-27 05:49:00,38.4,36.8,29.52,SE,138,0.0,3.0,94,0.03,,,0.09,0.00,VWS V14.01,2013-02-27 10:49:00,
2013-02-27 05:54:00,38.4,37.1,29.53,SE,129,1.5,4.5,95,0.04,,,0.10,0.00,VWS V14.01,2013-02-27 10:54:00,
2013-02-27 05:59:00,38.4,37.1,29.52,ESE,121,0.0,4.5,95,0.04,,,0.10,0.00,VWS V14.01,2013-02-27 10:59:00,
2013-02-27 06:00:00,38.4,37.1,29.52,SSW,213,1.5,4.5,95,0.04,,,0.10,0.00,VWS V14.01,2013-02-27 11:00:00,
2013-02-27 06:04:00,38.5,37.2,29.53,SE,126,1.5,4.5,95,0.05,,,0.11,0.00,VWS V14.01,2013-02-27 11:04:00,
2013-02-27 06:09:00,38.5,37.2,29.53,SSE,147,4.5,4.5,95,0.05,,,0.11,0.00,VWS V14.01,2013-02-27 11:09:00,
2013-02-27 06:14:00,38.5,37.2,29.53,SE,127,0.0,4.5,95,0.05,,,0.11,0.00,VWS V14.01,2013-02-27 11:14:00,
2013-02-27 06:15:00,38.5,37.2,29.53,SE,127,0.0,4.5,95,0.05,,,0.11,0.00,VWS V14.01,2013-02-27 11:15:00,
2013-02-27 06:19:00,38.5,37.2,29.53,ESE,122,1.5,3.0,95,0.05,,,0.12,0.00,VWS V14.01,2013-02-27 11:19:00,
2013-02-27 06:24:00,38.5,37.2,29.53,SE,140,0.0,3.0,95,0.05,,,0.12,0.00,VWS V14.01,2013-02-27 11:24:00,
2013-02-27 06:29:00,38.5,37.2,29.53,SSW,206,0.0,3.0,95,0.05,,,0.12,0.00,VWS V14.01,2013-02-27 11:29:00,
2013-02-27 06:30:00,38.5,37.2,29.53,SSW,206,0.0,3.0,95,0.05,,,0.12,0.00,VWS V14.01,2013-02-27 11:30:00,
2013-02-27 06:34:00,38.5,37.2,29.53,SSW,205,0.0,0.0,95,0.05,,,0.13,0.00,VWS V14.01,2013-02-27 11:34:00,
2013-02-27 06:39:00,38.5,37.2,29.53,SSE,153,0.0,0.0,95,0.05,,,0.13,0.00,VWS V14.01,2013-02-27 11:39:00,
2013-02-27 06:44:00,38.7,37.4,29.53,SSE,150,0.0,0.0,95,0.05,,,0.13,0.00,VWS V14.01,2013-02-27 11:44:00,
2013-02-27 06:45:00,38.7,37.4,29.53,SSE,150,0.0,0.0,95,0.05,,,0.13,0.00,VWS V14.01,2013-02-27 11:45:00,
2013-02-27 06:49:00,38.6,37.3,29.53,SSE,159,1.5,1.5,95,0.04,,,0.13,0.00,VWS V14.01,2013-02-27 11:49:00,
2013-02-27 06:54:00,38.8,37.8,29.54,SW,226,1.5,4.5,96,0.04,,,0.13,0.00,VWS V14.01,2013-02-27 11:54:00,
2013-02-27 06:59:00,39.1,38.1,29.54,SSE,147,1.5,4.5,96,0.04,,,0.13,0.00,VWS V14.01,2013-02-27 11:59:00,
2013-02-27 07:00:00,39.2,38.2,29.54,SW,214,3.0,4.5,96,0.04,,,0.13,0.00,VWS V14.01,2013-02-27 12:00:00,
2013-02-27 07:04:00,39.4,38.4,29.54,WSW,237,0.0,6.0,96,0.03,,,0.13,0.00,VWS V14.01,2013-02-27 12:04:00,
2013-02-27 07:09:00,39.5,38.5,29.54,SSW,205,1.5,9.0,96,0.03,,,0.13,0.00,VWS V14.01,2013-02-27 12:09:00,
2013-02-27 07:14:00,39.6,38.3,29.54,South,188,0.0,9.0,95,0.03,,,0.13,0.00,VWS V14.01,2013-02-27 12:14:00,
2013-02-27 07:15:00,39.6,38.3,29.54,SSW,208,3.0,9.0,95,0.03,,,0.13,0.00,VWS V14.01,2013-02-27 12:15:00,
2013-02-27 07:19:00,39.8,38.5,29.54,SSW,211,4.5,6.0,95,0.02,,,0.13,0.00,VWS V14.01,2013-02-27 12:19:00,
2013-02-27 07:24:00,39.8,38.2,29.55,SSW,212,1.5,6.0,94,0.02,,,0.13,0.00,VWS V14.01,2013-02-27 12:24:00,
2013-02-27 07:29:00,39.9,38.3,29.55,WSW,255,1.5,6.0,94,0.02,,,0.13,0.00,VWS V14.01,2013-02-27 12:29:00,
2013-02-27 07:30:00,39.9,38.3,29.55,SE,146,0.0,6.0,94,0.02,,,0.13,0.00,VWS V14.01,2013-02-27 12:30:00,
2013-02-27 07:34:00,39.9,38.3,29.55,SSW,212,4.5,9.0,94,0.01,,,0.13,0.00,VWS V14.01,2013-02-27 12:34:00,
2013-02-27 07:39:00,40.0,38.1,29.55,SW,219,1.5,9.0,93,0.01,,,0.13,0.00,VWS V14.01,2013-02-27 12:39:00,
2013-02-27 07:44:00,40.1,38.2,29.55,South,189,1.5,9.0,93,0.01,,,0.13,0.00,VWS V14.01,2013-02-27 12:44:00,
2013-02-27 07:45:00,40.1,38.2,29.55,SW,230,3.0,9.0,93,0.01,,,0.13,0.00,VWS V14.01,2013-02-27 12:45:00,
2013-02-27 07:49:00,40.1,38.0,29.56,SW,219,3.0,9.0,92,0.00,,,0.13,0.00,VWS V14.01,2013-02-27 12:49:00,
2013-02-27 07:54:00,40.1,38.0,29.56,SW,217,1.5,9.0,92,0.00,,,0.13,0.00,VWS V14.01,2013-02-27 12:54:00,
2013-02-27 07:59:00,40.1,38.0,29.56,SW,224,3.0,9.0,92,0.00,,,0.13,0.00,VWS V14.01,2013-02-27 12:59:00,
2013-02-27 08:00:00,40.2,38.1,29.56,SW,226,1.5,9.0,92,0.00,,,0.13,0.00,VWS V14.01,2013-02-27 13:00:00,
2013-02-27 08:04:00,40.3,37.9,29.56,WSW,246,1.5,7.5,91,0.00,,,0.13,0.00,VWS V14.01,2013-02-27 13:04:00,
2013-02-27 08:09:00,40.3,37.9,29.56,SW,233,9.0,16.5,91,0.00,,,0.13,0.00,VWS V14.01,2013-02-27 13:09:00,
2013-02-27 08:14:00,40.3,37.6,29.56,SW,224,3.0,16.5,90,0.00,,,0.13,0.00,VWS V14.01,2013-02-27 13:14:00,
2013-02-27 08:15:00,40.3,37.6,29.56,WSW,257,3.0,16.5,90,0.00,,,0.13,0.00,VWS V14.01,2013-02-27 13:15:00,
2013-02-27 08:19:00,40.2,37.5,29.57,WSW,255,3.0,7.5,90,0.00,,,0.13,0.00,VWS V14.01,2013-02-27 13:19:00,
2013-02-27 08:24:00,40.1,37.4,29.57,SW,234,1.5,7.5,90,0.00,,,0.13,0.00,VWS V14.01,2013-02-27 13:24:00,
2013-02-27 08:29:00,40.1,37.1,29.57,South,179,4.5,10.5,89,0.00,,,0.13,0.00,VWS V14.01,2013-02-27 13:29:00,
2013-02-27 08:30:00,40.1,37.1,29.57,SW,235,3.0,10.5,89,0.00,,,0.13,0.00,VWS V14.01,2013-02-27 13:30:00,
2013-02-27 08:34:00,40.2,37.2,29.57,SW,227,3.0,10.5,89,0.00,,,0.13,0.00,VWS V14.01,2013-02-27 13:34:00,
2013-02-27 08:39:00,40.3,37.3,29.57,SW,214,1.5,10.5,89,0.00,,,0.13,0.00,VWS V14.01,2013-02-27 13:39:00,
2013-02-27 08:44:00,40.2,37.5,29.57,West,270,1.5,10.5,90,0.00,,,0.13,0.00,VWS V14.01,2013-02-27 13:44:00,
2013-02-27 08:45:00,40.1,37.4,29.57,SSE,155,1.5,10.5,90,0.00,,,0.13,0.00,VWS V14.01,2013-02-27 13:45:00,
2013-02-27 08:49:00,40.1,37.1,29.58,SSW,213,0.0,7.5,89,0.00,,,0.13,0.00,VWS V14.01,2013-02-27 13:49:00,
2013-02-27 08:54:00,40.2,37.2,29.58,South,174,3.0,9.0,89,0.00,,,0.13,0.00,VWS V14.01,2013-02-27 13:54:00,
2013-02-27 08:59:00,40.3,37.3,29.58,SSW,195,1.5,9.0,89,0.00,,,0.13,0.00,VWS V14.01,2013-02-27 13:59:00,
2013-02-27 09:00:00,40.3,37.3,29.58,SSW,213,1.5,9.0,89,0.00,,,0.13,0.00,VWS V14.01,2013-02-27 14:00:00,
2013-02-27 09:04:00,40.3,37.3,29.58,SW,227,3.0,7.5,89,0.00,,,0.13,0.00,VWS V14.01,2013-02-27 14:04:00,
2013-02-27 09:09:00,40.4,37.1,29.58,SW,215,1.5,9.0,88,0.00,,,0.13,0.00,VWS V14.01,2013-02-27 14:09:00,
2013-02-27 09:14:00,40.5,37.2,29.58,SW,226,9.0,9.0,88,0.00,,,0.13,0.00,VWS V14.01,2013-02-27 14:14:00,
2013-02-27 09:15:00,40.6,37.3,29.58,WSW,245,7.5,10.5,88,0.00,,,0.13,0.00,VWS V14.01,2013-02-27 14:15:00,
2013-02-27 09:19:00,40.6,37.0,29.58,SW,225,3.0,10.5,87,0.00,,,0.13,0.00,VWS V14.01,2013-02-27 14:19:00,
2013-02-27 09:24:00,40.6,37.3,29.58,SW,225,3.0,12.0,88,0.00,,,0.13,0.00,VWS V14.01,2013-02-27 14:24:00,
2013-02-27 09:29:00,40.6,37.3,29.58,SW,221,4.5,12.0,88,0.00,,,0.13,0.00,VWS V14.01,2013-02-27 14:29:00,
2013-02-27 09:30:00,40.6,37.0,29.58,South,179,4.5,12.0,87,0.00,,,0.13,0.00,VWS V14.01,2013-02-27 14:30:00,
2013-02-27 09:34:00,40.7,37.1,29.58,SSW,203,3.0,10.5,87,0.00,,,0.13,0.00,VWS V14.01,2013-02-27 14:34:00,
2013-02-27 09:39:00,40.8,37.2,29.58,SW,233,6.0,10.5,87,0.00,,,0.13,0.00,VWS V14.01,2013-02-27 14:39:00,
2013-02-27 09:44:00,40.9,37.6,29.58,SW,231,3.0,10.5,88,0.00,,,0.13,0.00,VWS V14.01,2013-02-27 14:44:00,
2013-02-27 09:45:00,41.0,37.7,29.58,SSW,213,0.0,10.5,88,0.00,,,0.13,0.00,VWS V14.01,2013-02-27 14:45:00,
2013-02-27 09:49:00,41.1,37.5,29.58,SW,236,1.5,13.5,87,0.00,,,0.13,0.00,VWS V14.01,2013-02-27 14:49:00,
2013-02-27 09:54:00,41.2,37.3,29.58,SSW,193,0.0,13.5,86,0.00,,,0.13,0.00,VWS V14.01,2013-02-27 14:54:00,
2013-02-27 09:59:00,41.3,37.4,29.58,SSE,165,3.0,13.5,86,0.00,,,0.13,0.00,VWS V14.01,2013-02-27 14:59:00,
2013-02-27 10:00:00,41.3,37.4,29.58,SW,219,6.0,13.5,86,0.00,,,0.13,0.00,VWS V14.01,2013-02-27 15:00:00,
2013-02-27 10:04:00,41.4,37.5,29.58,WSW,240,4.5,12.0,86,0.00,,,0.13,0.00,VWS V14.01,2013-02-27 15:04:00,
2013-02-27 10:09:00,41.5,37.6,29.58,South,176,1.5,12.0,86,0.00,,,0.13,0.00,VWS V14.01,2013-02-27 15:09:00,
2013-02-27 10:14:00,41.6,37.7,29.58,SW,233,0.0,12.0,86,0.00,,,0.13,0.00,VWS V14.01,2013-02-27 15:14:00,
2013-02-27 10:15:00,41.6,37.7,29.58,WSW,252,1.5,12.0,86,0.00,,,0.13,0.00,VWS V14.01,2013-02-27 15:15:00,
2013-02-27 10:19:00,41.7,38.1,29.58,SSE,166,4.5,9.0,87,0.00,,,0.13,0.00,VWS V14.01,2013-02-27 15:19:00,
2013-02-27 10:24:00,41.7,37.8,29.58,SSW,205,3.0,12.0,86,0.00,,,0.13,0.00,VWS V14.01,2013-02-27 15:24:00,
2013-02-27 10:29:00,41.7,37.8,29.58,SSW,211,3.0,12.0,86,0.00,,,0.13,0.00,VWS V14.01,2013-02-27 15:29:00,
2013-02-27 10:30:00,41.7,37.8,29.58,West,266,6.0,12.0,86,0.00,,,0.13,0.00,VWS V14.01,2013-02-27 15:30:00,
2013-02-27 10:34:00,41.8,37.9,29.58,SE,143,3.0,15.0,86,0.00,,,0.13,0.00,VWS V14.01,2013-02-27 15:34:00,
2013-02-27 10:39:00,41.8,37.6,29.58,SSW,205,4.5,15.0,85,0.00,,,0.13,0.00,VWS V14.01,2013-02-27 15:39:00,
2013-02-27 10:44:00,41.7,37.8,29.58,SE,128,3.0,15.0,86,0.00,,,0.13,0.00,VWS V14.01,2013-02-27 15:44:00,
2013-02-27 10:45:00,41.7,37.8,29.58,SSE,159,10.5,15.0,86,0.00,,,0.13,0.00,VWS V14.01,2013-02-27 15:45:00,
2013-02-27 10:49:00,41.7,37.8,29.59,SSW,192,9.0,12.0,86,0.00,,,0.13,0.00,VWS V14.01,2013-02-27 15:49:00,
2013-02-27 10:54:00,41.6,37.7,29.59,SSW,213,3.0,12.0,86,0.00,,,0.13,0.00,VWS V14.01,2013-02-27 15:54:00,
2013-02-27 10:59:00,41.6,37.7,29.59,WSW,238,0.0,12.0,86,0.00,,,0.13,0.00,VWS V14.01,2013-02-27 15:59:00,
2013-02-27 11:00:00,41.6,37.7,29.59,SW,214,3.0,12.0,86,0.00,,,0.13,0.00,VWS V14.01,2013-02-27 16:00:00,
2013-02-27 11:04:00,41.6,37.7,29.59,WSW,257,1.5,9.0,86,0.00,,,0.13,0.00,VWS V14.01,2013-02-27 16:04:00,
2013-02-27 11:09:00,41.7,37.8,29.59,ESE,121,3.0,15.0,86,0.00,,,0.13,0.00,VWS V14.01,2013-02-27 16:09:00,
2013-02-27 11:14:00,41.8,37.6,29.59,WSW,255,3.0,15.0,85,0.00,,,0.13,0.00,VWS V14.01,2013-02-27 16:14:00,
2013-02-27 11:15:00,41.8,37.9,29.59,SSW,192,3.0,15.0,86,0.00,,,0.13,0.00,VWS V14.01,2013-02-27 16:15:00,
2013-02-27 11:19:00,41.9,37.7,29.59,SSW,195,1.5,9.0,85,0.00,,,0.13,0.00,VWS V14.01,2013-02-27 16:19:00,
2013-02-27 11:24:00,42.3,38.1,29.58,WSW,249,0.0,9.0,85,0.00,,,0.13,0.00,VWS V14.01,2013-02-27 16:24:00,
2013-02-27 11:29:00,42.6,38.1,29.58,WSW,255,1.5,9.0,84,0.00,,,0.13,0.00,VWS V14.01,2013-02-27 16:29:00,
2013-02-27 11:30:00,42.6,38.1,29.58,SW,233,4.5,9.0,84,0.00,,,0.13,0.00,VWS V14.01,2013-02-27 16:30:00,
2013-02-27 11:34:00,42.8,38.0,29.58,WSW,252,4.5,10.5,83,0.00,,,0.13,0.00,VWS V14.01,2013-02-27 16:34:00,
2013-02-27 11:39:00,42.9,38.1,29.58,WSW,242,0.0,12.0,83,0.00,,,0.13,0.00,VWS V14.01,2013-02-27 16:39:00,
2013-02-27 11:43:00,43.0,37.9,29.58,SW,219,3.0,16.5,82,0.00,,,0.13,0.00,VWS V14.01,2013-02-27 16:43:00,
2013-02-27 11:45:00,42.9,37.8,29.58,SSE,165,6.0,16.5,82,0.00,,,0.13,0.00,VWS V14.01,2013-02-27 16:45:00,
2013-02-27 11:48:00,42.8,37.7,29.59,SW,219,6.0,9.0,82,0.00,,,0.13,0.00,VWS V14.01,2013-02-27 16:48:00,
2013-02-27 11:53:00,42.7,37.6,29.58,WSW,240,3.0,12.0,82,0.00,,,0.13,0.00,VWS V14.01,2013-02-27 16:53:00,
2013-02-27 11:58:00,42.6,37.5,29.59,WNW,285,4.5,12.0,82,0.00,,,0.13,0.00,VWS V14.01,2013-02-27 16:58:00,
2013-02-27 12:00:00,42.5,36.8,29.59,SSW,201,3.0,12.0,80,0.00,,,0.13,0.00,VWS V14.01,2013-02-27 17:00:00,
2013-02-27 12:03:00,42.5,36.8,29.59,SW,236,3.0,13.5,80,0.00,,,0.13,0.00,VWS V14.01,2013-02-27 17:03:00,
2013-02-27 12:08:00,42.5,37.1,29.59,East,83,1.5,13.5,81,0.00,,,0.13,0.00,VWS V14.01,2013-02-27 17:08:00,
2013-02-27 12:13:00,42.5,37.1,29.59,SW,235,4.5,16.5,81,0.00,,,0.13,0.00,VWS V14.01,2013-02-27 17:13:00,
2013-02-27 12:15:00,42.5,37.4,29.59,SW,234,3.0,16.5,82,0.00,,,0.13,0.00,VWS V14.01,2013-02-27 17:15:00,
2013-02-27 12:18:00,42.7,37.3,29.59,WSW,238,6.0,13.5,81,0.00,,,0.13,0.00,VWS V14.01,2013-02-27 17:18:00,
2013-02-27 12:23:00,42.7,37.0,29.59,SSW,205,7.5,13.5,80,0.00,,,0.13,0.00,VWS V14.01,2013-02-27 17:23:00,
2013-02-27 12:28:00,42.8,37.4,29.59,SW,224,1.5,13.5,81,0.00,,,0.13,0.00,VWS V14.01,2013-02-27 17:28:00,
2013-02-27 12:30:00,42.9,37.2,29.59,SW,221,6.0,13.5,80,0.00,,,0.13,0.00,VWS V14.01,2013-02-27 17:30:00,
2013-02-27 12:33:00,42.8,36.8,29.59,WSW,252,6.0,9.0,79,0.00,,,0.13,0.00,VWS V14.01,2013-02-27 17:33:00,
2013-02-27 12:38:00,42.8,37.1,29.59,SE,125,1.5,9.0,80,0.00,,,0.13,0.00,VWS V14.01,2013-02-27 17:38:00,
2013-02-27 12:43:00,42.8,36.8,29.59,WSW,244,7.5,16.5,79,0.00,,,0.13,0.00,VWS V14.01,2013-02-27 17:43:00,
2013-02-27 12:45:00,42.7,36.7,29.58,SW,224,6.0,16.5,79,0.00,,,0.13,0.00,VWS V14.01,2013-02-27 17:45:00,
2013-02-27 12:48:00,42.7,36.7,29.59,SW,217,1.5,15.0,79,0.00,,,0.13,0.00,VWS V14.01,2013-02-27 17:48:00,
2013-02-27 12:53:00,42.7,36.7,29.58,SW,218,3.0,15.0,79,0.00,,,0.13,0.00,VWS V14.01,2013-02-27 17:53:00,
2013-02-27 12:58:00,42.6,36.9,29.58,SSW,204,7.5,15.0,80,0.00,,,0.13,0.00,VWS V14.01,2013-02-27 17:58:00,
2013-02-27 13:00:00,42.6,36.6,29.58,South,179,3.0,15.0,79,0.00,,,0.13,0.00,VWS V14.01,2013-02-27 18:00:00,
2013-02-27 13:03:00,42.5,36.8,29.58,WNW,285,6.0,12.0,80,0.00,,,0.13,0.00,VWS V14.01,2013-02-27 18:03:00,
2013-02-27 13:08:00,42.5,36.8,29.58,SW,230,0.0,12.0,80,0.00,,,0.13,0.00,VWS V14.01,2013-02-27 18:08:00,
2013-02-27 13:13:00,42.6,36.5,29.59,West,263,4.5,12.0,79,0.00,,,0.13,0.00,VWS V14.01,2013-02-27 18:13:00,
2013-02-27 13:15:00,42.6,36.6,29.58,SW,226,1.5,12.0,79,0.00,,,0.13,0.00,VWS V14.01,2013-02-27 18:15:00,
2013-02-27 13:18:00,42.7,36.7,29.58,SSW,209,4.5,10.5,79,0.00,,,0.13,0.00,VWS V14.01,2013-02-27 18:18:00,
2013-02-27 13:23:00,42.7,37.0,29.58,SW,235,1.5,10.5,80,0.00,,,0.13,0.00,VWS V14.01,2013-02-27 18:23:00,
2013-02-27 13:28:00,42.6,36.9,29.58,South,184,9.0,12.0,80,0.00,,,0.13,0.00,VWS V14.01,2013-02-27 18:28:00,
2013-02-27 13:30:00,42.6,36.6,29.58,SW,218,3.0,12.0,79,0.00,,,0.13,0.00,VWS V14.01,2013-02-27 18:30:00,
2013-02-27 13:33:00,42.7,37.3,29.58,SW,215,0.0,4.5,81,0.00,,,0.13,0.00,VWS V14.01,2013-02-27 18:33:00,
2013-02-27 13:38:00,42.8,37.1,29.58,WSW,238,3.0,4.5,80,0.00,,,0.13,0.00,VWS V14.01,2013-02-27 18:38:00,
2013-02-27 13:43:00,42.8,36.4,29.58,SW,226,4.5,10.5,78,0.00,,,0.13,0.00,VWS V14.01,2013-02-27 18:43:00,
2013-02-27 13:45:00,42.8,36.8,29.58,WSW,248,3.0,10.5,79,0.00,,,0.13,0.00,VWS V14.01,2013-02-27 18:45:00,
2013-02-27 13:48:00,42.8,36.8,29.58,SSW,212,1.5,7.5,79,0.00,,,0.13,0.00,VWS V14.01,2013-02-27 18:48:00,
2013-02-27 13:53:00,42.8,36.8,29.58,WSW,248,6.0,7.5,79,0.00,,,0.13,0.00,VWS V14.01,2013-02-27 18:53:00,
2013-02-27 13:58:00,42.8,36.4,29.58,SW,226,3.0,7.5,78,0.00,,,0.13,0.00,VWS V14.01,2013-02-27 18:58:00,
2013-02-27 14:00:00,42.7,36.3,29.58,SW,218,1.5,7.5,78,0.00,,,0.13,0.00,VWS V14.01,2013-02-27 19:00:00,
2013-02-27 14:03:00,42.7,36.7,29.58,SW,236,1.5,7.5,79,0.00,,,0.13,0.00,VWS V14.01,2013-02-27 19:03:00,
2013-02-27 14:08:00,42.4,37.0,29.59,WNW,289,1.5,7.5,81,0.00,,,0.13,0.00,VWS V14.01,2013-02-27 19:08:00,
2013-02-27 14:13:00,40.2,35.2,29.59,West,272,3.0,7.5,82,0.01,,,0.14,0.00,VWS V14.01,2013-02-27 19:13:00,
2013-02-27 14:15:00,39.4,35.0,29.60,West,259,0.0,7.5,84,0.02,,,0.15,0.00,VWS V14.01,2013-02-27 19:15:00,
2013-02-27 14:18:00,38.4,34.9,29.59,WSW,246,0.0,1.5,87,0.02,,,0.15,0.00,VWS V14.01,2013-02-27 19:18:00,
2013-02-27 14:23:00,37.7,35.0,29.59,WNW,300,0.0,1.5,90,0.02,,,0.15,0.00,VWS V14.01,2013-02-27 19:23:00,
2013-02-27 14:28:00,37.3,34.9,29.60,WNW,303,0.0,1.5,91,0.02,,,0.15,0.00,VWS V14.01,2013-02-27 19:28:00,
2013-02-27 14:30:00,37.2,34.8,29.60,SW,235,0.0,1.5,91,0.02,,,0.15,0.00,VWS V14.01,2013-02-27 19:30:00,
2013-02-27 14:33:00,37.1,35.0,29.60,SW,236,1.5,1.5,92,0.02,,,0.15,0.00,VWS V14.01,2013-02-27 19:33:00,
2013-02-27 14:38:00,36.8,34.7,29.60,WSW,237,0.0,3.0,92,0.02,,,0.15,0.00,VWS V14.01,2013-02-27 19:38:00,
2013-02-27 14:43:00,36.8,35.0,29.60,WSW,252,0.0,3.0,93,0.02,,,0.15,0.00,VWS V14.01,2013-02-27 19:43:00,
2013-02-27 14:45:00,36.7,34.9,29.60,WNW,287,0.0,3.0,93,0.02,,,0.15,0.00,VWS V14.01,2013-02-27 19:45:00,
2013-02-27 14:48:00,36.5,34.7,29.60,WNW,287,0.0,1.5,93,0.02,,,0.15,0.00,VWS V14.01,2013-02-27 19:48:00,
2013-02-27 14:53:00,36.4,34.6,29.60,West,264,1.5,1.5,93,0.02,,,0.15,0.00,VWS V14.01,2013-02-27 19:53:00,
2013-02-27 14:58:00,36.2,34.4,29.60,West,281,0.0,1.5,93,0.03,,,0.16,0.00,VWS V14.01,2013-02-27 19:58:00,
2013-02-27 15:00:00,36.1,34.3,29.60,West,281,0.0,1.5,93,0.03,,,0.16,0.00,VWS V14.01,2013-02-27 20:00:00,
2013-02-27 15:03:00,36.1,34.3,29.60,NNW,328,0.0,1.5,93,0.03,,,0.16,0.00,VWS V14.01,2013-02-27 20:03:00,
2013-02-27 15:08:00,36.0,34.4,29.60,West,271,0.0,1.5,94,0.03,,,0.16,0.00,VWS V14.01,2013-02-27 20:08:00,
2013-02-27 15:13:00,35.7,34.2,29.60,WSW,256,0.0,3.0,94,0.03,,,0.16,0.00,VWS V14.01,2013-02-27 20:13:00,
2013-02-27 15:15:00,35.7,34.2,29.60,WSW,256,0.0,3.0,94,0.03,,,0.16,0.00,VWS V14.01,2013-02-27 20:15:00,
2013-02-27 15:18:00,35.7,34.2,29.61,WSW,257,0.0,1.5,94,0.01,,,0.16,0.00,VWS V14.01,2013-02-27 20:18:00,
2013-02-27 15:23:00,35.5,34.0,29.61,WSW,257,1.5,1.5,94,0.02,,,0.17,0.00,VWS V14.01,2013-02-27 20:23:00,
2013-02-27 15:28:00,35.5,34.0,29.61,WSW,238,0.0,3.0,94,0.02,,,0.17,0.00,VWS V14.01,2013-02-27 20:28:00,
2013-02-27 15:30:00,35.4,33.8,29.61,SW,229,4.5,4.5,94,0.02,,,0.17,0.00,VWS V14.01,2013-02-27 20:30:00,
2013-02-27 15:33:00,35.3,33.8,29.61,WSW,245,1.5,4.5,94,0.02,,,0.17,0.00,VWS V14.01,2013-02-27 20:33:00,
2013-02-27 15:38:00,35.2,33.7,29.61,SW,229,0.0,4.5,94,0.03,,,0.18,0.00,VWS V14.01,2013-02-27 20:38:00,
2013-02-27 15:43:00,35.1,33.5,29.61,SW,229,0.0,4.5,94,0.04,,,0.19,0.00,VWS V14.01,2013-02-27 20:43:00,
2013-02-27 15:45:00,35.1,33.8,29.61,SW,229,0.0,4.5,95,0.04,,,0.19,0.00,VWS V14.01,2013-02-27 20:45:00,
2013-02-27 15:48:00,35.2,33.9,29.61,WSW,258,0.0,1.5,95,0.04,,,0.19,0.00,VWS V14.01,2013-02-27 20:48:00,
2013-02-27 15:53:00,35.3,34.0,29.61,WSW,248,1.5,1.5,95,0.04,,,0.19,0.00,VWS V14.01,2013-02-27 20:53:00,
2013-02-27 15:58:00,35.2,33.9,29.61,WSW,245,1.5,6.0,95,0.04,,,0.19,0.00,VWS V14.01,2013-02-27 20:58:00,
2013-02-27 16:00:00,35.3,34.0,29.61,WSW,240,0.0,6.0,95,0.04,,,0.19,0.00,VWS V14.01,2013-02-27 21:00:00,
2013-02-27 16:03:00,35.4,34.1,29.61,SW,220,0.0,1.5,95,0.04,,,0.20,0.00,VWS V14.01,2013-02-27 21:03:00,
2013-02-27 16:08:00,35.4,34.1,29.61,SW,221,0.0,1.5,95,0.04,,,0.20,0.00,VWS V14.01,2013-02-27 21:08:00,
2013-02-27 16:13:00,35.3,34.0,29.61,WSW,255,1.5,7.5,95,0.04,,,0.20,0.00,VWS V14.01,2013-02-27 21:13:00,
2013-02-27 16:15:00,35.1,33.5,29.61,WSW,255,1.5,7.5,94,0.04,,,0.20,0.00,VWS V14.01,2013-02-27 21:15:00,
2013-02-27 16:18:00,34.9,33.3,29.61,West,277,3.0,4.5,94,0.04,,,0.20,0.00,VWS V14.01,2013-02-27 21:18:00,
2013-02-27 16:23:00,34.6,33.0,29.62,WSW,257,0.0,4.5,94,0.05,,,0.21,0.00,VWS V14.01,2013-02-27 21:23:00,
2013-02-27 16:28:00,34.5,33.2,29.62,SW,217,0.0,4.5,95,0.05,,,0.21,0.00,VWS V14.01,2013-02-27 21:28:00,
2013-02-27 16:30:00,34.5,33.2,29.61,WSW,244,0.0,4.5,95,0.05,,,0.21,0.00,VWS V14.01,2013-02-27 21:30:00,
2013-02-27 16:33:00,34.5,33.2,29.62,SW,236,0.0,3.0,95,0.04,,,0.21,0.00,VWS V14.01,2013-02-27 21:33:00,
2013-02-27 16:38:00,34.6,33.3,29.62,WSW,255,4.5,4.5,95,0.05,,,0.22,0.00,VWS V14.01,2013-02-27 21:38:00,
2013-02-27 16:43:00,34.7,33.4,29.61,SW,220,1.5,4.5,95,0.05,,,0.22,0.00,VWS V14.01,2013-02-27 21:43:00,
2013-02-27 16:45:00,34.7,33.4,29.61,SSW,195,0.0,4.5,95,0.05,,,0.22,0.00,VWS V14.01,2013-02-27 21:45:00,
2013-02-27 16:48:00,34.9,33.9,29.61,South,188,0.0,7.5,96,0.03,,,0.22,0.00,VWS V14.01,2013-02-27 21:48:00,
2013-02-27 16:53:00,35.2,34.2,29.61,SSW,196,1.5,7.5,96,0.03,,,0.22,0.00,VWS V14.01,2013-02-27 21:53:00,
2013-02-27 16:58:00,35.4,34.4,29.61,SW,226,6.0,7.5,96,0.03,,,0.22,0.00,VWS V14.01,2013-02-27 21:58:00,
2013-02-27 17:00:00,35.5,34.5,29.61,West,259,1.5,7.5,96,0.03,,,0.22,0.00,VWS V14.01,2013-02-27 22:00:00,
2013-02-27 17:03:00,35.8,34.5,29.61,SW,224,7.5,7.5,95,0.03,,,0.22,0.00,VWS V14.01,2013-02-27 22:03:00,
2013-02-27 17:08:00,36.1,34.5,29.62,SSW,213,4.5,10.5,94,0.03,,,0.22,0.00,VWS V14.01,2013-02-27 22:08:00,
2013-02-27 17:13:00,36.3,34.5,29.62,SW,222,1.5,10.5,93,0.03,,,0.22,0.00,VWS V14.01,2013-02-27 22:13:00,
2013-02-27 17:15:00,36.3,34.5,29.62,SW,232,3.0,10.5,93,0.03,,,0.22,0.00,VWS V14.01,2013-02-27 22:15:00,
2013-02-27 17:18:00,36.3,34.5,29.62,SSW,203,0.0,4.5,93,0.02,,,0.22,0.00,VWS V14.01,2013-02-27 22:18:00,
2013-02-27 17:23:00,36.3,34.2,29.62,SW,224,3.0,6.0,92,0.02,,,0.22,0.00,VWS V14.01,2013-02-27 22:23:00,
2013-02-27 17:28:00,36.3,34.5,29.62,SW,225,3.0,6.0,93,0.02,,,0.22,0.00,VWS V14.01,2013-02-27 22:28:00,
2013-02-27 17:30:00,36.3,34.5,29.62,SW,230,6.0,7.5,93,0.02,,,0.22,0.00,VWS V14.01,2013-02-27 22:30:00,
2013-02-27 17:33:00,36.2,34.1,29.62,SW,223,4.5,10.5,92,0.02,,,0.23,0.00,VWS V14.01,2013-02-27 22:33:00,
2013-02-27 17:38:00,36.1,34.0,29.62,SSW,213,4.5,10.5,92,0.02,,,0.23,0.00,VWS V14.01,2013-02-27 22:38:00,
2013-02-27 17:43:00,36.0,33.9,29.63,SW,214,1.5,15.0,92,0.02,,,0.23,0.00,VWS V14.01,2013-02-27 22:43:00,
2013-02-27 17:45:00,36.0,33.9,29.62,SW,221,10.5,15.0,92,0.02,,,0.23,0.00,VWS V14.01,2013-02-27 22:45:00,
2013-02-27 17:48:00,35.9,34.1,29.62,SW,214,4.5,12.0,93,0.01,,,0.23,0.00,VWS V14.01,2013-02-27 22:48:00,
2013-02-27 17:53:00,35.8,34.0,29.63,West,278,1.5,12.0,93,0.01,,,0.23,0.00,VWS V14.01,2013-02-27 22:53:00,
2013-02-27 17:58:00,35.7,33.9,29.63,SW,219,1.5,12.0,93,0.01,,,0.23,0.00,VWS V14.01,2013-02-27 22:58:00,
2013-02-27 18:00:00,35.7,33.9,29.63,SW,215,4.5,12.0,93,0.01,,,0.23,0.00,VWS V14.01,2013-02-27 23:00:00,
2013-02-27 18:03:00,35.6,33.5,29.63,WSW,240,7.5,7.5,92,0.01,,,0.23,0.00,VWS V14.01,2013-02-27 23:03:00,
2013-02-27 18:08:00,35.5,33.4,29.63,WSW,258,0.0,10.5,92,0.01,,,0.23,0.00,VWS V14.01,2013-02-27 23:08:00,
2013-02-27 18:13:00,35.4,33.3,29.63,West,265,3.0,13.5,92,0.01,,,0.23,0.00,VWS V14.01,2013-02-27 23:13:00,
2013-02-27 18:15:00,35.3,33.2,29.63,WSW,248,1.5,13.5,92,0.01,,,0.23,0.00,VWS V14.01,2013-02-27 23:15:00,
2013-02-27 18:18:00,35.3,33.2,29.63,WSW,253,3.0,7.5,92,0.01,,,0.23,0.00,VWS V14.01,2013-02-27 23:18:00,
2013-02-27 18:23:00,35.2,33.1,29.63,WSW,251,4.5,9.0,92,0.01,,,0.23,0.00,VWS V14.01,2013-02-27 23:23:00,
2013-02-27 18:28:00,35.1,33.0,29.63,WSW,250,1.5,10.5,92,0.01,,,0.23,0.00,VWS V14.01,2013-02-27 23:28:00,
2013-02-27 18:30:00,35.1,33.3,29.64,SW,227,1.5,10.5,93,0.01,,,0.23,0.00,VWS V14.01,2013-02-27 23:30:00,
2013-02-27 18:33:00,35.1,33.3,29.63,WSW,239,3.0,12.0,93,0.01,,,0.23,0.00,VWS V14.01,2013-02-27 23:33:00,
2013-02-27 18:38:00,35.0,33.2,29.64,WSW,255,1.5,12.0,93,0.01,,,0.23,0.00,VWS V14.01,2013-02-27 23:38:00,
2013-02-27 18:43:00,35.0,33.2,29.63,WSW,241,1.5,12.0,93,0.01,,,0.23,0.00,VWS V14.01,2013-02-27 23:43:00,
2013-02-27 18:45:00,35.0,33.2,29.63,WSW,237,0.0,12.0,93,0.01,,,0.23,0.00,VWS V14.01,2013-02-27 23:45:00,
2013-02-27 18:48:00,35.0,33.5,29.63,SW,218,0.0,1.5,94,0.00,,,0.23,0.00,VWS V14.01,2013-02-27 23:48:00,
2013-02-27 18:53:00,34.9,33.3,29.63,SW,224,0.0,4.5,94,0.00,,,0.23,0.00,VWS V14.01,2013-02-27 23:53:00,
2013-02-27 18:58:00,34.9,33.3,29.64,SW,230,0.0,4.5,94,0.00,,,0.23,0.00,VWS V14.01,2013-02-27 23:58:00,
2013-02-27 19:00:00,34.9,33.3,29.64,SSW,202,0.0,4.5,94,0.00,,,0.23,0.00,VWS V14.01,2013-02-28 00:00:00,
2013-02-27 19:03:00,34.8,33.2,29.64,SW,224,4.5,4.5,94,0.00,,,0.23,0.00,VWS V14.01,2013-02-28 00:03:00,
2013-02-27 19:08:00,34.8,33.2,29.64,SW,233,1.5,4.5,94,0.00,,,0.23,0.00,VWS V14.01,2013-02-28 00:08:00,
2013-02-27 19:13:00,34.8,33.2,29.64,SSW,198,0.0,6.0,94,0.00,,,0.23,0.00,VWS V14.01,2013-02-28 00:13:00,
2013-02-27 19:15:00,34.8,33.2,29.64,SSW,210,1.5,6.0,94,0.00,,,0.23,0.00,VWS V14.01,2013-02-28 00:15:00,
2013-02-27 19:18:00,34.7,33.2,29.64,SSW,210,0.0,1.5,94,0.00,,,0.23,0.00,VWS V14.01,2013-02-28 00:18:00,
2013-02-27 19:23:00,34.7,33.2,29.64,South,176,0.0,6.0,94,0.01,,,0.24,0.00,VWS V14.01,2013-02-28 00:23:00,
2013-02-27 19:28:00,34.8,33.2,29.64,SW,223,3.0,6.0,94,0.01,,,0.24,0.00,VWS V14.01,2013-02-28 00:28:00,
2013-02-27 19:30:00,34.8,33.2,29.64,SW,221,1.5,6.0,94,0.01,,,0.24,0.00,VWS V14.01,2013-02-28 00:30:00,
2013-02-27 19:33:00,34.8,33.2,29.64,SSW,213,1.5,6.0,94,0.01,,,0.24,0.00,VWS V14.01,2013-02-28 00:33:00,
2013-02-27 19:38:00,34.8,33.2,29.64,SSW,197,3.0,6.0,94,0.01,,,0.24,0.00,VWS V14.01,2013-02-28 00:38:00,
2013-02-27 19:43:00,34.8,33.2,29.64,SW,216,0.0,6.0,94,0.01,,,0.24,0.00,VWS V14.01,2013-02-28 00:43:00,
2013-02-27 19:45:00,34.7,33.2,29.64,SW,226,3.0,6.0,94,0.01,,,0.24,0.00,VWS V14.01,2013-02-28 00:45:00,
2013-02-27 19:48:00,34.7,33.2,29.64,WSW,245,3.0,6.0,94,0.01,,,0.24,0.00,VWS V14.01,2013-02-28 00:48:00,
2013-02-27 19:53:00,34.7,33.2,29.64,South,180,4.5,7.5,94,0.01,,,0.24,0.00,VWS V14.01,2013-02-28 00:53:00,
2013-02-27 19:58:00,34.6,33.0,29.64,SW,226,1.5,7.5,94,0.01,,,0.24,0.00,VWS V14.01,2013-02-28 00:58:00,
2013-02-27 20:00:00,34.5,33.0,29.64,West,262,0.0,7.5,94,0.01,,,0.24,0.00,VWS V14.01,2013-02-28 01:00:00,
2013-02-27 20:03:00,34.5,33.0,29.64,SW,224,4.5,4.5,94,0.01,,,0.24,0.00,VWS V14.01,2013-02-28 01:03:00,
2013-02-27 20:07:00,34.5,33.0,29.64,WSW,243,3.0,7.5,94,0.01,,,0.24,0.00,VWS V14.01,2013-02-28 01:07:00,
2013-02-27 20:12:00,34.5,33.0,29.64,SW,217,3.0,18.0,94,0.02,,,0.25,0.00,VWS V14.01,2013-02-28 01:12:00,
2013-02-27 20:15:00,34.5,32.7,29.64,SW,224,3.0,18.0,93,0.02,,,0.25,0.00,VWS V14.01,2013-02-28 01:15:00,
2013-02-27 20:17:00,34.5,32.7,29.64,SSW,208,0.0,6.0,93,0.02,,,0.25,0.00,VWS V14.01,2013-02-28 01:17:00,
2013-02-27 20:22:00,34.5,32.7,29.64,West,274,1.5,12.0,93,0.02,,,0.25,0.00,VWS V14.01,2013-02-28 01:22:00,
2013-02-27 20:27:00,34.5,32.7,29.64,SW,229,3.0,12.0,93,0.02,,,0.25,0.00,VWS V14.01,2013-02-28 01:27:00,
2013-02-27 20:30:00,34.4,32.6,29.64,SSW,208,3.0,12.0,93,0.02,,,0.25,0.00,VWS V14.01,2013-02-28 01:30:00,
2013-02-27 20:32:00,34.5,32.7,29.64,SW,226,1.5,3.0,93,0.01,,,0.25,0.00,VWS V14.01,2013-02-28 01:32:00,
2013-02-27 20:37:00,34.4,32.6,29.64,West,269,1.5,7.5,93,0.01,,,0.25,0.00,VWS V14.01,2013-02-28 01:37:00,
2013-02-27 20:42:00,34.4,32.9,29.64,SW,224,0.0,7.5,94,0.01,,,0.25,0.00,VWS V14.01,2013-02-28 01:42:00,
2013-02-27 20:45:00,34.4,32.9,29.64,SE,146,0.0,7.5,94,0.01,,,0.25,0.00,VWS V14.01,2013-02-28 01:45:00,
2013-02-27 20:47:00,34.3,32.8,29.64,WSW,237,1.5,3.0,94,0.01,,,0.25,0.00,VWS V14.01,2013-02-28 01:47:00,
2013-02-27 20:52:00,34.3,32.8,29.64,WSW,239,1.5,3.0,94,0.01,,,0.25,0.00,VWS V14.01,2013-02-28 01:52:00,
2013-02-27 20:57:00,34.3,32.8,29.64,WSW,250,3.0,7.5,94,0.01,,,0.25,0.00,VWS V14.01,2013-02-28 01:57:00,
2013-02-27 21:00:00,34.3,32.5,29.64,WSW,256,1.5,7.5,93,0.01,,,0.25,0.00,VWS V14.01,2013-02-28 02:00:00,
2013-02-27 21:02:00,34.3,32.5,29.63,SW,236,1.5,3.0,93,0.01,,,0.25,0.00,VWS V14.01,2013-02-28 02:02:00,
2013-02-27 21:07:00,34.3,32.5,29.63,South,188,4.5,4.5,93,0.01,,,0.25,0.00,VWS V14.01,2013-02-28 02:07:00,
2013-02-27 21:12:00,34.3,32.5,29.63,West,259,1.5,6.0,93,0.01,,,0.25,0.00,VWS V14.01,2013-02-28 02:12:00,
2013-02-27 21:15:00,34.2,32.7,29.63,South,191,0.0,6.0,94,0.01,,,0.25,0.00,VWS V14.01,2013-02-28 02:15:00,
2013-02-27 21:17:00,34.2,32.7,29.63,SE,130,1.5,3.0,94,0.00,,,0.25,0.00,VWS V14.01,2013-02-28 02:17:00,
2013-02-27 21:22:00,34.1,32.6,29.63,SW,222,1.5,3.0,94,0.00,,,0.25,0.00,VWS V14.01,2013-02-28 02:22:00,
2013-02-27 21:27:00,34.1,32.6,29.63,SW,228,6.0,6.0,94,0.00,,,0.25,0.00,VWS V14.01,2013-02-28 02:27:00,
2013-02-27 21:30:00,34.0,32.5,29.63,SW,228,1.5,6.0,94,0.00,,,0.25,0.00,VWS V14.01,2013-02-28 02:30:00,
2013-02-27 21:32:00,34.0,32.5,29.63,SSW,213,1.5,3.0,94,0.00,,,0.25,0.00,VWS V14.01,2013-02-28 02:32:00,
2013-02-27 21:37:00,34.0,32.5,29.63,SSW,213,0.0,6.0,94,0.00,,,0.25,0.00,VWS V14.01,2013-02-28 02:37:00,
2013-02-27 21:42:00,34.1,32.6,29.63,SW,227,1.5,12.0,94,0.00,,,0.25,0.00,VWS V14.01,2013-02-28 02:42:00,
2013-02-27 21:45:00,34.1,32.3,29.63,West,259,4.5,12.0,93,0.00,,,0.25,0.00,VWS V14.01,2013-02-28 02:45:00,
2013-02-27 21:47:00,34.1,32.3,29.63,SSW,209,4.5,4.5,93,0.00,,,0.25,0.00,VWS V14.01,2013-02-28 02:47:00,
2013-02-27 21:52:00,34.1,32.3,29.63,WSW,240,6.0,7.5,93,0.00,,,0.25,0.00,VWS V14.01,2013-02-28 02:52:00,
2013-02-27 21:57:00,34.0,31.9,29.62,SSW,192,4.5,10.5,92,0.00,,,0.25,0.00,VWS V14.01,2013-02-28 02:57:00,
2013-02-27 22:00:00,34.1,32.3,29.63,SW,214,3.0,10.5,93,0.00,,,0.25,0.00,VWS V14.01,2013-02-28 03:00:00,
2013-02-27 22:02:00,34.0,32.2,29.62,SW,226,3.0,9.0,93,0.00,,,0.25,0.00,VWS V14.01,2013-02-28 03:02:00,
2013-02-27 22:07:00,33.9,31.8,29.63,SW,234,10.5,15.0,92,0.00,,,0.25,0.00,VWS V14.01,2013-02-28 03:07:00,
2013-02-27 22:12:00,33.9,31.8,29.62,SW,214,3.0,15.0,92,0.00,,,0.25,0.00,VWS V14.01,2013-02-28 03:12:00,
2013-02-27 22:15:00,33.9,31.8,29.62,SW,232,4.5,15.0,92,0.00,,,0.25,0.00,VWS V14.01,2013-02-28 03:15:00,
2013-02-27 22:17:00,33.8,31.7,29.62,WSW,239,3.0,10.5,92,0.01,,,0.26,0.00,VWS V14.01,2013-02-28 03:17:00,
2013-02-27 22:22:00,33.8,31.7,29.62,SSW,205,1.5,12.0,92,0.01,,,0.26,0.00,VWS V14.01,2013-02-28 03:22:00,
2013-02-27 22:27:00,33.8,31.7,29.62,WSW,248,3.0,13.5,92,0.01,,,0.26,0.00,VWS V14.01,2013-02-28 03:27:00,
2013-02-27 22:30:00,33.8,31.5,29.62,SW,234,1.5,13.5,91,0.01,,,0.26,0.00,VWS V14.01,2013-02-28 03:30:00,
2013-02-27 22:32:00,33.8,31.7,29.62,West,273,0.0,3.0,92,0.01,,,0.26,0.00,VWS V14.01,2013-02-28 03:32:00,
2013-02-27 22:37:00,33.7,31.6,29.62,SW,226,1.5,3.0,92,0.01,,,0.26,0.00,VWS V14.01,2013-02-28 03:37:00,
2013-02-27 22:42:00,33.7,31.6,29.62,WSW,252,3.0,7.5,92,0.01,,,0.26,0.00,VWS V14.01,2013-02-28 03:42:00,
2013-02-27 22:45:00,33.7,31.6,29.62,WNW,293,3.0,12.0,92,0.01,,,0.26,0.00,VWS V14.01,2013-02-28 03:45:00,
2013-02-27 22:47:00,33.7,31.6,29.62,SW,218,6.0,7.5,92,0.01,,,0.26,0.00,VWS V14.01,2013-02-28 03:47:00,
2013-02-27 22:52:00,33.7,31.6,29.61,West,259,0.0,9.0,92,0.01,,,0.26,0.00,VWS V14.01,2013-02-28 03:52:00,
2013-02-27 22:57:00,33.7,31.6,29.61,WSW,241,3.0,9.0,92,0.01,,,0.26,0.00,VWS V14.01,2013-02-28 03:57:00,
2013-02-27 23:00:00,33.7,31.6,29.61,West,267,6.0,9.0,92,0.01,,,0.26,0.00,VWS V14.01,2013-02-28 04:00:00,
2013-02-27 23:02:00,33.7,31.6,29.61,WSW,253,1.5,6.0,92,0.01,,,0.26,0.00,VWS V14.01,2013-02-28 04:02:00,
2013-02-27 23:07:00,33.7,31.6,29.62,SW,218,7.5,10.5,92,0.01,,,0.26,0.00,VWS V14.01,2013-02-28 04:07:00,
2013-02-27 23:12:00,33.7,31.4,29.61,SW,233,4.5,12.0,91,0.01,,,0.26,0.00,VWS V14.01,2013-02-28 04:12:00,
2013-02-27 23:15:00,33.7,31.4,29.61,SW,236,3.0,12.0,91,0.01,,,0.26,0.00,VWS V14.01,2013-02-28 04:15:00,
2013-02-27 23:17:00,33.7,31.4,29.61,SW,233,3.0,4.5,91,0.01,,,0.26,0.00,VWS V14.01,2013-02-28 04:17:00,
2013-02-27 23:22:00,33.7,31.4,29.61,WSW,245,1.5,9.0,91,0.01,,,0.26,0.00,VWS V14.01,2013-02-28 04:22:00,
2013-02-27 23:27:00,33.7,31.4,29.61,South,186,6.0,9.0,91,0.01,,,0.26,0.00,VWS V14.01,2013-02-28 04:27:00,
2013-02-27 23:30:00,33.7,31.1,29.61,SW,218,4.5,12.0,90,0.01,,,0.26,0.00,VWS V14.01,2013-02-28 04:30:00,
2013-02-27 23:32:00,33.7,31.1,29.61,WSW,244,3.0,7.5,90,0.00,,,0.26,0.00,VWS V14.01,2013-02-28 04:32:00,
2013-02-27 23:37:00,33.7,31.1,29.61,SW,229,1.5,7.5,90,0.00,,,0.26,0.00,VWS V14.01,2013-02-28 04:37:00,
2013-02-27 23:42:00,33.7,31.1,29.61,SW,227,3.0,7.5,90,0.00,,,0.26,0.00,VWS V14.01,2013-02-28 04:42:00,
2013-02-27 23:45:00,33.7,31.1,29.61,WSW,257,4.5,10.5,90,0.00,,,0.26,0.00,VWS V14.01,2013-02-28 04:45:00,
2013-02-27 23:47:00,33.7,30.8,29.61,SW,219,4.5,7.5,89,0.00,,,0.26,0.00,VWS V14.01,2013-02-28 04:47:00,
2013-02-27 23:52:00,33.8,30.9,29.61,West,267,0.0,9.0,89,0.00,,,0.26,0.00,VWS V14.01,2013-02-28 04:52:00,
2013-02-27 23:57:00,33.7,30.8,29.61,WSW,237,3.0,9.0,89,0.00,,,0.26,0.00,VWS V14.01,2013-02-28 04:57:00,